Regional Weather Roundup
Issued by NWS

Home | Current Version | Previous Version | Graphics & Text | Print | Product List | Glossary On
Versions: 1 2 3 4 5 6 7 8 9 10 11 12 13 14 15 16 17 18 19 20 21 22 23 24 25 26 27 28 29 30 31 32 33 34 35 36 37 38 39 40 41 42 43 44 45 46 47 48 49 50
000
ASUS43 KOAX 040402
RWRNE

WEATHER ROUNDUP FOR NEBRASKA
NATIONAL WEATHER SERVICE OMAHA NE
1100 PM CDT TUE MAY 03 2016

NOTES: SATELLITE DATA IS BEING USED TO AUGMENT CLOUD COVER ABOVE
       12000 FEET.
       "FAIR" INDICATES FEW OR NO CLOUDS BELOW 12,000 FEET WITH NO
       SIGNIFICANT WEATHER AND/OR OBSTRUCTIONS TO VISIBILITY.

  * THESE STATIONS DO NOT REPORT WEATHER SUCH AS RAIN...SNOW OR FOG.

NEZ001>004-019>022-054>056-040500-
NEBRASKA PANHANDLE

CITY           SKY/WX    TMP DP  RH WIND       PRES   REMARKS
SCOTTSBLUFF    CLEAR     53  40  61 CALM      30.16R
ALLIANCE       CLEAR     49  40  71 N3        30.14R
CHADRON        CLEAR     50  43  77 SW5       30.13R
KIMBALL        CLEAR     45  39  78 CALM      30.20R
SIDNEY         CLEAR     41  35  79 W7        30.17R
$$

NEZ057>060-069>072-079>082-040500-
SOUTHWEST NEBRASKA

CITY           SKY/WX    TMP DP  RH WIND       PRES   REMARKS
NORTH PLATTE   CLEAR     45  38  76 NW7       30.07R
IMPERIAL       CLEAR     52  38  58 NW6       30.11R
LEXINGTON      CLEAR     50  44  79 NW6       30.04R
MCCOOK         CLEAR     49  40  71 W9        30.06R
$$

NEZ005>010-023>029-035>040-094-040500-
NORTH CENTRAL NEBRASKA

CITY           SKY/WX    TMP DP  RH WIND       PRES   REMARKS
VALENTINE      CLEAR     53  42  66 W9        30.04R
AINSWORTH      CLEAR     56  42  59 W9        30.02R
BROKEN BOW     CLEAR     53  41  63 NW7       30.02R
ORD            CLEAR     54  43  66 W10       29.97S
$$

NEZ041-046>049-061>064-073>077-083>087-040500-
SOUTH CENTRAL NEBRASKA

CITY           SKY/WX    TMP DP  RH WIND       PRES   REMARKS
GRAND ISLAND   CLEAR     54  44  69 W9        29.98S
AURORA         CLEAR     53  44  72 W9        29.96F
HASTINGS       CLEAR     53  43  68 W8        29.99R
KEARNEY *      CLEAR     54  43  66 NW8       30.02R
YORK           CLEAR     54  46  76 W10       29.95S
$$

NEZ011>018-030>034-042>045-040500-
NORTHEAST NEBRASKA

CITY           SKY/WX    TMP DP  RH WIND       PRES   REMARKS
NORFOLK        CLEAR     57  44  62 NW10      29.90R
ALBION         CLEAR     55  43  65 NW7       29.93S
BLAIR          MOCLDY    59  46  61 W8        29.85F
COLUMBUS *     CLEAR     54  37  54 W3        29.91F
FREMONT        CLEAR     60  44  55 W9        29.87F
TEKAMAH        CLEAR     57  46  66 W13       29.83F
$$

NEZ050>053-065>068-078-088>093-040500-
SOUTHEAST NEBRASKA

CITY           SKY/WX    TMP DP  RH WIND       PRES   REMARKS
LINCOLN        CLEAR     60  45  57 W7        29.91F
OMAHA EPPLEY   MOCLDY    62  45  53 CALM      29.85F
BEATRICE       CLEAR     54  44  69 W5        29.93S
FALLS CITY     CLEAR     57  43  59 SW9       29.90F
$$

NEZ044-045-051>053-067-040500-
OMAHA AREA

CITY           SKY/WX    TMP DP  RH WIND       PRES   REMARKS
OMAHA EPPLEY   MOCLDY    62  45  53 CALM      29.85F
BLAIR          MOCLDY    59  46  61 W8        29.85F
FREMONT        CLEAR     60  44  55 W9        29.87F
OFFUTT AFB     MOCLDY    61  45  55 W7        29.85F
$$



USA.gov is the U.S. government's official web portal to all federal, state and local government web resources and services.